Regional Weather Roundup
Issued by NWS San Angelo, TX

Home | Current Version | Previous Version | Text Only | Print | Product List | Glossary On
Versions: 1 2 3 4 5 6 7 8 9 10 11 12 13 14 15 16 17 18 19 20 21 22 23 24 25 26 27 28 29 30 31 32 33 34 35 36 37 38 39 40 41 42 43 44 45 46 47 48 49 50
939
ASUS44 KSJT 081102
RWRSJT
WEST CENTRAL TEXAS REGIONAL WEATHER ROUNDUP
NATIONAL WEATHER SERVICE SAN ANGELO TX
500 AM CST MON FEB 08 2016

NOTE: "FAIR" INDICATES FEW OR NO CLOUDS BELOW 12,000 FEET WITH NO
SIGNIFICANT WEATHER AND/OR OBSTRUCTIONS TO VISIBILITY.

TXZ049-054-064>066-071>073-076>078-098-099-113-114-127-128-139-140-
154-155-168>170-081200
...LOCATIONS ACROSS WEST CENTRAL TEXAS...

CITY           SKY/WX    TMP DP  RH WIND       PRES   REMARKS
SAN ANGELO     CLOUDY    38  16  40 NE10      30.38R WCI  31
ABILENE        CLEAR     32  18  56 N8        30.38S WCI  25
DYESS AFB      CLEAR     32  17  55 NW7       30.38S WCI  25
JUNCTION       PTCLDY    43  21  41 NE7       30.34R WCI  39
SWEETWATER     NOT AVBL
BROWNWOOD      CLEAR     41  14  33 N10       30.37R WCI  35
COLEMAN        NOT AVBL
SONORA         NOT AVBL
OZONA          NOT AVBL
BRADY          NOT AVBL
$$

TEXAS PANHANDLE/OKLAHOMA PANHANDLE

CITY           SKY/WX    TMP DP  RH WIND       PRES   REMARKS
AMARILLO       CLOUDY    26  13  57 NW14      30.41F WCI  14
BORGER         CLEAR     28  15  58 W9        30.42F WCI  19
CANADIAN       CLEAR     32  15  49 NW10G17   30.38S WCI  24
DALHART        CLOUDY    22  13  68 NW12      30.43S WCI  10
DUMAS          CLOUDY    23  14  67 NW14      30.41F WCI  11
GUYMON         NOT AVBL
HEREFORD       NOT AVBL
PAMPA          NOT AVBL
PERRYTON       NOT AVBL
$$

SOUTHERN PANHANDLE/SOUTH PLAINS/ROLLING PLAINS

CITY           SKY/WX    TMP DP  RH WIND       PRES   REMARKS
LUBBOCK        CLOUDY    24  13  62 NW9       30.42S WCI  14
SNYDER           N/A     35  13  40 N12       30.41R WCI  26
CHILDRESS      CLEAR     29  15  56 NW6       30.40F WCI  23
SEMINOLE       NOT AVBL
$$

PERMIAN BASIN

CITY           SKY/WX    TMP DP  RH WIND       PRES   REMARKS
MIDLAND        CLOUDY    30  17  58 N9        30.42R WCI  22
ODESSA         CLOUDY    32  17  54 N9        30.43R WCI  24
WINK           CLOUDY    36  16  44 N8        30.45R WCI  30
$$

FAR WEST/SOUTHWEST MOUNTAINS/TRANS PECOS

CITY           SKY/WX    TMP DP  RH WIND       PRES   REMARKS
ALPINE         NOT AVBL
DRYDEN           N/A     46  24  42 NE7       30.38R
EL PASO        PTCLDY    38  15  39 N7        30.33R WCI  33
FORT STOCKTON  CLOUDY    37  22  54 NE7       30.43R WCI  32
GUADALUPE PASS CLOUDY    33  19  56 NE44G49   30.34F WCI  17
MARFA          CLOUDY    41  17  38 N12       30.37R WCI  34
PECOS          NOT AVBL
$$

DALLAS/FORT WORTH METROPLEX

CITY           SKY/WX    TMP DP  RH WIND       PRES   REMARKS
DFW AIRPORT    PTCLDY    43  19  38 NW18      30.29R WCI  35
FTW MEACHAM    CLEAR     43  19  38 NW14      30.31R WCI  36
DAL-EXECUTIVE  CLEAR     41  19  41 NW12      30.28S WCI  34
GRAND PRAIRIE  CLEAR     45  16  31 NW9       30.32R WCI  40
ADDISON        NOT AVBL
MESQUITE       SUNNY     45  17  32 NW14G21   30.28S WCI  38
LANCASTER      SUNNY     42  16  35 NW8       30.30R WCI  37
$$

NORTH CENTRAL TEXAS

CITY           SKY/WX    TMP DP  RH WIND       PRES   REMARKS
SHRMAN/DENISON SUNNY     43  19  38 NW10      30.29R WCI  37
GAINESVILLE    NOT AVBL
BRIDGEPORT     SUNNY     41  23  48 NW9       30.35S WCI  35
DENTON         PTCLDY    41  19  41 NW13      30.30S WCI  34
WAXAHACHIE     SUNNY     43  21  42 NW12      30.30R WCI  37
GRANBURY       SUNNY     40  20  44 NW3       30.35R
$$

WESTERN NORTH TEXAS

CITY           SKY/WX    TMP DP  RH WIND       PRES   REMARKS
WICHITA FALLS  CLEAR     36  18  48 NW15      30.36S WCI  27
VERNON         SUNNY     36  12  36 NW13      30.40S WCI  28
BRECKENRIDGE   NOT AVBL
COMANCHE       CLEAR     39  17  40 NW9       30.36R WCI  33
$$

CENTRAL AND SOUTH CENTRAL TEXAS

CITY           SKY/WX    TMP DP  RH WIND       PRES   REMARKS
AUSTIN/BERGSTM CLEAR     49  27  42 N16       30.28R
WACO           CLEAR     43  21  41 N10       30.31R WCI  37
HILLSBORO      NOT AVBL
TEMPLE         CLEAR     44  24  45 N14       30.31R WCI  37
KILLEEN-GRAY   CLEAR     42  23  47 N16       30.31R WCI  34
FORT HOOD      CLEAR     44  21  39 N10       30.30R WCI  39
GEORGETOWN     CLEAR     45  25  45 N12G20    30.30R WCI  39
LAGO VISTA     FAIR      46  27  48 N13G21    30.29R WCI  40
SAN MARCOS     CLEAR     48  28  46 N18G24    30.28R
NEW BRAUNFELS  CLEAR     52  28  39 N21       30.25R
RANDOLPH AFB   PTCLDY    51  28  39 N13       30.26R
SAN ANTONIO    PTCLDY    51  29  42 N14       30.26R
STINSON        CLEAR     53  28  38 N14G24    30.24R
PLEASANTON     NOT AVBL
LA GRANGE      NOT AVBL
GIDDINGS       NOT AVBL
$$

EAST TEXAS

CITY           SKY/WX    TMP DP  RH WIND       PRES   REMARKS
PARIS          PTCLDY    45  16  31 NW20G28   30.21R WCI  37
CLARKSVILLE    NOT AVBL
TYLER          PTCLDY    45  20  36 NW12      30.22R WCI  39
LONGVIEW       PTCLDY    44  22  41 NW14      30.18R WCI  37
PALESTINE      SUNNY     45  24  44 NW7       30.26R
NACOGDOCHES    CLEAR     37  28  70 NW8       30.20R WCI  31
$$

TEXAS HILL COUNTRY AND EDWARDS PLATEAU

CITY           SKY/WX    TMP DP  RH WIND       PRES   REMARKS
LLANO          NOT AVBL
HORSESHOE BAY  FAIR      47  26  45 N7        30.32R
KERRVILLE      PTCLDY    44  27  50 N10G16    30.32R WCI  39
FREDERICKSBRG  NOT AVBL
ROCKSPRINGS    NOT AVBL
HONDO          CLOUDY    50  26  39 N15       30.30R
UVALDE         CLOUDY    50  27  40 NE9       30.29R
DEL RIO        CLOUDY    46  27  47 NW5       30.34R
$$

SOUTHEAST TEXAS

CITY           SKY/WX    TMP DP  RH WIND       PRES   REMARKS
COLLEGE STN    CLEAR     48  29  47 N20G28    30.26R
CALDWELL       NOT AVBL
CROCKETT       NOT AVBL
BRENHAM        NOT AVBL
HUNTSVILLE     CLEAR     45  32  60 NW8       30.24R
CONROE         CLEAR     41  34  76 NW7       30.23R WCI  36
HOUSTON BUSH   CLEAR     46  37  71 N6        30.22R
HOUSTON HOBBY  CLEAR     50  41  71 N7        30.22R
PERLAND        CLEAR     48  42  80 NW7       30.23R
WHARTON        NOT AVBL
$$

THE UPPER TEXAS COAST

CITY           SKY/WX    TMP DP  RH WIND       PRES   REMARKS
ORANGE         NOT AVBL
PORT ARTHUR    CLEAR     45  41  86 NW9       30.19R
GALVESTON      CLEAR     51  46  83 NW12      30.21R
ANGLETON       CLEAR     44  42  93 N6        30.22R
BAY CITY       MOSUNNY   44  44 100 N7        30.21R WCI  40
$$

TEXAS COASTAL BEND, RIO GRANDE PLAINS DEEP SOUTH TEXAS

CITY           SKY/WX    TMP DP  RH WIND       PRES   REMARKS
VICTORIA       PTCLDY    41  40  96 NE5       30.22R WCI  38
BEEVILLE       FAIR      46  44  92 NW6       30.22R
ROCKPORT       PTCLDY    51  48  89 NW13G22   30.21R
PORT ARANSAS   NOT AVBL
PORT LAVACA    MOSUNNY   42  41  96 N5        30.22R WCI  39
CORPUS CHRISTI MOCLDY    42  39  89 NW13      30.21R WCI  35
KINGSVILLE NAS PTCLDY    42  42 100 NW8       30.20R WCI  37
COTULLA        PTCLDY    52  28  39 NE12      30.26R
LAREDO         CLOUDY    51  38  60 N9        30.24R
BROWNSVILLE    CLOUDY    54  53  97 N3        30.17R
PORT ISABEL    CLOUDY    56  55  97 CALM      30.17R
HEBBRONVILLE   NOT AVBL
MCALLEN        CLOUDY    55  48  77 CALM      30.18R
WESLACO        NOT AVBL
FALFURRIAS     CLOUDY    47  41  80 NW3       30.19R
EDINBURG       CLOUDY    49  43  78 N6        30.19R
$$




USA.gov is the U.S. government's official web portal to all federal, state and local government web resources and services.